CZ-6A DEB

Satellite information

Favourite Embed

Satellite Type and Status

DEBRISIN ORBIT

Key statistics

Satellite CZ-6A DEB at a glance.

Uptime

969

Days in orbit

Revolutions

≈ 14.6

Per day

Orbit

SSO

Sun Synchronous Orbit

Inclination

98.6

Latest

Satellite identification and parameters

Extended collection of information and parameters for CZ-6A DEB.

Object identification

Identified? True

Debris? True

Object name: CZ-6A DEB

International designator: 2022-151HF

Object number (NORAD): 54479

Object ID (CCSDS): 54479

Country: PEOPLES REPUBLIC OF CHINA (PRC)

Current information (Y/N): Y

RCS size: SMALL

Orbital parameters

Period: 98.846 minutes

Inclination: 98.6464 deg

SMA: 7081.646 km

Apoapsis: 767.126 km

Periapsis: 639.896 km

RAAN: 225.7468 deg

Eccentricy: 0.0089831

Argument of periapsis: 301.4924 deg

Mean anomaly: 57.7518 deg

Mean motion: 14.56805158 rev/day

Mean motion (dot): 0.0000658 rev/day2

B* drag term: 0.0014018 1/REarth

Two-line elements (TLE)

Creation date: July 6, 2025, 6:05 p.m.

Reference frame: TEME

Reference center: EARTH

Epoch: July 6, 2025, 1:34 p.m. UTC

TLE line 0: 0 CZ-6A DEB

TLE line 1: 1 54479U 22151HF 25187.56571852 .00006580 00000-0 14018-2 0 9997

TLE line 2: 2 54479 98.6464 225.7468 0089831 301.4924 57.7518 14.56805158139238

Live tracking on map

Real-time ground track for satellite CZ-6A DEB.

In-orbit conjunctions

A list of the most updated potential collisions computed for object CZ-6A DEB.

Target Orbit TCA Probability of collision Miss distance Type
RITE TARGET 2 SSO 2025-02-03 14:21:55 0.0001667259 969.0 (m) PAYLOAD
COSMOS 1624 LEO 2024-11-21 03:48:41 0.0001669891 507.0 (m) PAYLOAD
FENGYUN 1C DEB SSO 2024-06-30 13:02:07 0.000151008 427.0 (m) DEBRIS

Associated space launch

Chinese satellite reported for atmospheric/ocean/environmental/spatial parameter research purposes, details TBD.

CZ-6A DEB was lifted into orbit during the mission ‘Long March 6A | Yunhai 3’, on board a Long March 6A space rocket.

The launch took place on Nov. 11, 2022, 10:52 p.m. from Launch Complex 9A.

For more information about the launch, click the button.

Launch to space Long March 6A | Yunhai 3
Long March 6A | Yunhai 3

Agency: N/A

Status: Launch Successful

Launch date: Nov. 11, 2022, 10:52 p.m. UTC

Rocket: Long March 6A

Launch pad: Launch Complex 9A

Location: Taiyuan Satellite Launch Center, People's Republic of China

...

Latest news about this satellite

There are no fresh news available about this satellite. Check back as we update our databases every day.


Newsletter sign-up

Weekly statistics, charts and insights to help you stay on top of the space industry.